{"data":{"norad_id":53465,"epoch":"2026-09-20T03:09:34.096032Z","epoch_age_seconds":107184,"freshness":"FRESH","line1":"1 53465U 22099A   26263.13164463  .00000946  00000+0  31636-4 0  9993","line2":"2 53465  97.2855  20.7341 0000808  88.0652 272.0683 15.33448142225476","mean_motion":15.33448142,"eccentricity":8.08e-5,"inclination_deg":97.2855,"raan_deg":20.7341,"arg_perigee_deg":88.0652,"mean_anomaly_deg":272.0683,"bstar":3.1636e-5,"rev_number":22547,"period_min":93.90601224518,"perigee_km":464.98085750993,"apogee_km":466.08679471543,"semimajor_km":6843.6708261127,"source":"CELESTRAK","updated_at":"2026-09-20T09:00:40.234575Z"}}